Regional Weather Roundup
Issued by NWS Green Bay, WI

Home | Current Version | Previous Version | Text Only | Print | Product List | Glossary On
Versions: 1 2 3 4 5 6 7 8 9 10 11 12 13 14 15 16 17 18 19 20 21 22 23 24 25 26 27 28 29 30 31 32 33 34 35 36 37 38 39 40 41 42 43 44 45 46 47 48 49 50
000
ASUS43 KGRB 240300
RWRGRB

NORTH-CENTRAL AND NORTHEAST WISCONSIN REGIONAL WEATHER ROUNDUP
NATIONAL WEATHER SERVICE GREEN BAY WI
1000 PM CDT FRI JUN 23 2017

WIZ005-009-010>012-018-019-240400-
NORTH CENTRAL WISCONSIN

CITY           SKY/WX    TMP DP  RH WIND       PRES   REMARKS
IRONWOOD       LGT RAIN  60  50  69 NW8       29.79R
MANITOWISH WTR NOT AVBL
ARBOR VITAE    NOT AVBL
EAGLE RIVER    NOT AVBL
LAND O LAKES   CLEAR     53  48  83 CALM      29.79R
RHINELANDER    PTCLDY    50  50 100 W5        29.79R
PHILLIPS       NOT AVBL
ANTIGO         NOT AVBL
TOMAHAWK       NOT AVBL
MERRILL        CLEAR     58  53  82 W6        29.80R
$$

WIZ013-073-240400-
NORTHEAST WISCONSIN

CITY           SKY/WX    TMP DP  RH WIND       PRES   REMARKS
IRON MOUNTAIN  CLEAR     61  46  57 NW6       29.74R
MARINETTE      CLEAR     63  50  62 CALM      29.74R
$$

WIZ017-030-035>037-045-240400-
CENTRAL WISCONSIN

CITY           SKY/WX    TMP DP  RH WIND       PRES   REMARKS
MEDFORD        NOT AVBL
WAUSAU         MOCLDY    59  53  80 W6        29.78R
MOSINEE        MOCLDY    57  55  94 CALM      29.81R
MARSHFIELD     MOCLDY    62  51  67 W9        29.81R
WISC RAPIDS    CLEAR     61  52  72 W7        29.83R
STEVENS POINT  NOT AVBL
WAUPACA        PTCLDY    64  53  68 W5        29.79R
SHAWANO        NOT AVBL
CLINTONVILLE   NOT AVBL
WAUTOMA        CLEAR     62  54  74 W7        29.82R
$$

WIZ038-039-048-051-240400-
FOX VALLEY

CITY           SKY/WX    TMP DP  RH WIND       PRES   REMARKS
NWS GREEN BAY  CLEAR     63  55  75 W7        29.75R
APPLETON       PTCLDY    63  52  67 W7        29.76R
OSHKOSH        CLEAR     64  53  67 W5        29.78R
FOND DU LAC    PTCLDY    64  52  64 W7        29.79R
$$

WIZ022-050-052-240400-
EAST CENTRAL WISCONSIN

CITY           SKY/WX    TMP DP  RH WIND       PRES   REMARKS
EPHRAIM        NOT AVBL
WASHINGTON ISL NOT AVBL
STURGEON BAY     N/A     66  53  63 W8          N/A
MANITOWOC      NOT AVBL
SHEBOYGAN      CLEAR     65  56  72 W9        29.77R
$$

LMZ563-521-522-541>543-240400-
LAKESHORE

STATION/POSITION TIME  TEMP    WIND        PRES    VSBY  WAVE
                       AIR SEA DIR/SP/G                  HT/PER
                 (UTC) (F)     (DEG/KT/KT) (MB)    (MI)  (FT/S)
SHEBOYGAN LKSHOR 0200   69     280/ 12/ 15 1006.4R
KEWAUNEE LKSHORE 0230   66     300/  4/  5 1006.4R
NORTHPORT PIER   0240   66     300/  7/ 10 1006.1R
N MID LAKE BUOY  0150   60 58   30/  4/  6 1005.5R         1/ 3
S GREEN BAY BUOY 0230   68     280/ 10/ 12 1006.5R
CHAMBERS ISLAND  0240   65     290/  2/  6 1006.1R
MENOMINEE LKSHOR 0230          290/  7/ 10 1005.6R
$$




USA.gov is the U.S. government's official web portal to all federal, state and local government web resources and services.